SCP
0 0 0 0 0 -0 -0 0 -0 0 0 0 0 0 0 0 -0 0 0 0 0 0 0 0 1 1 1 1 0 0 0 0 0 0 0 0 0 0 0 0 0 0 0 0 0 0 0 0 0
0 0 0 0 0 0 0 0 0 0 0 -0 0 0 0 0 0 0 0 0 0 0 0 0 1 1 1 1 0 0 0 0 0 0 0 0 0 0 0 0 0 0 0 0 0 0 0 0 0
0 0 0 0 0 0 0 0 0 0 0 0 0 0 0 0 0 0 0 0 0 0 0 0 1 1 1 1 1 1 1 1 0 0 0 0 0 0 0 0 0 0 0 0 0 0 0 0 0
0 0 0 0 0 0 -0 0 0 0 0 0 0 0 0 0 0 0 0 0 0 0 0 0 1 1 1 1 1 1 1 1 0 0 0 0 0 0 0 0 0 0 0 0 0 0 0 0 0
0 0 0 0 -0 -0 -0 -0 -0 0 0 0 0 0 0 0 0 0 0 0 0 0 0 0 1 1 1 1 1 1 1 1 1 0 0 0 0 0 0 0 0 0 0 0 -0 0 0 0 0
0 0 0 0 0 0 -0 -0 0 0 0 0 0 0 0 0 0 0 0 0 0 0 0 0 1 1 1 1 1 1 1 1 1 1 1 1 1 1 0 0 0 0 0 0 0 0 0 0 0
0 0 0 0 0 0 0 0 0 0 0 0 0 0 0 0 0 0 0 0 0 0 0 1 1 1 1 2 2 2 1 1 1 1 1 1 1 1 1 0 0 0 0 0 0 0 0 0 0
0 0 0 0 0 0 0 0 0 0 0 0 0 0 0 0 0 0 0 0 0 0 0 0 1 1 1 1 2 2 2 2 2 2 2 1 1 0 0 0 0 0 0 0 0 0 0 0 0
0 0 0 0 0 0 0 0 0 0 0 0 0 0 0 0 0 0 0 0 0 0 0 0 0 1 1 0 1 2 2 2 2 2 2 1 0 0 0 0 0 0 0 0 0 0 0 0 0
0 0 0 0 0 0 0 0 0 0 0 0 0 0 0 0 0 0 0 0 0 0 0 0 1 1 1 0 1 1 1 1 1 1 1 1 0 0 0 0 0 0 0 0 0 0 0 0 0
0 0 0 0 0 0 0 0 0 0 0 0 0 0 0 0 0 0 0 -0 0 0 0 0 1 1 1 1 1 2 1 1 1 1 1 0 1 0 0 0 0 0 0 0 0 0 0 0 0
0 0 0 0 0 0 0 0 0 0 0 0 0 0 0 0 0 0 0 -0 0 0 0 0 1 2 1 1 1 1 1 1 1 1 1 1 1 1 0 0 0 0 0 0 0 0 0 0 0
0 0 0 0 0 0 0 0 0 0 0 -0 0 0 0 0 0 0 0 -0 0 0 0 0 1 1 1 2 1 1 1 1 1 0 1 1 1 1 1 1 0 0 0 0 0 0 0 0 0
0 0 0 0 0 0 0 0 0 0 0 0 0 0 0 0 0 0 0 0 0 0 0 0 1 2 1 1 1 2 2 1 1 0 1 1 1 1 1 1 1 0 0 0 0 0 0 0 0
0 0 0 0 0 0 0 0 0 -0 -0 0 0 0 0 0 0 0 0 0 0 0 0 0 1 1 1 1 1 1 1 1 0 1 1 1 1 1 1 1 1 0 1 0 0 0 0 0 0
0 0 0 0 0 0 0 0 0 0 0 0 0 0 0 0 0 0 0 0 -0 0 0 0 1 1 1 1 1 1 1 1 1 1 1 1 1 0 1 1 1 0 0 0 0 0 0 0 0
0 0 0 0 0 0 0 0 0 0 0 0 0 0 0 0 0 0 0 -0 -0 0 0 0 0 0 0 1 1 1 1 1 1 1 1 1 1 0 1 1 1 1 0 0 0 0 0 0 0
0 0 0 0 0 0 0 0 0 0 0 0 0 0 0 0 0 0 0 0 0 0 0 0 0 0 1 1 1 1 1 1 1 1 1 1 1 1 1 1 1 0 0 0 0 0 0 0 0
0 0 0 0 0 0 0 0 0 0 0 0 0 0 0 0 0 0 0 0 0 0 0 0 0 1 1 1 1 1 1 1 1 1 1 1 1 1 1 1 1 0 0 0 0 0 0 0 0
0 0 0 0 0 0 0 0 0 0 0 0 0 0 0 0 0 0 0 0 0 0 0 0 0 0 1 1 1 1 0 0 1 1 1 1 1 0 1 1 0 0 0 0 0 0 0 0 0
0 0 0 0 0 0 0 0 0 0 0 0 0 0 0 0 0 0 0 0 0 0 0 0 1 1 1 1 1 1 1 1 1 1 1 1 0 0 0 0 0 0 0 0 0 0 0 0 0
0 0 0 0 0 0 0 0 0 0 0 0 0 0 0 0 0 0 0 0 0 0 0 0 0 0 1 0 1 1 0 0 0 0 0 0 0 0 0 0 0 0 0 0 0 0 0 0 0
0 0 0 0 0 0 0 0 -0 0 -0 -0 -0 0 0 0 0 0 0 0 0 0 0 0 0 0 0 0 0 0 0 0 0 0 0 0 0 0 0 0 0 0 0 -0 -0 0 0 0 0
0 0 0 0 0 0 -0 0 0 0 -0 -0 0 0 0 0 0 0 0 0 0 0 0 0 0 0 0 0 0 1 1 0 0 0 0 0 0 0 0 0 -0 0 0 0 0 0 0 0 0
0 0 0 0 0 0 0 0 -0 -0 -0 -0 0 0 0 0 0 0 0 0 0 0 0 0 0 0 0 0 0 0 0 0 0 0 0 0 0 0 -0 -0 -0 0 0 0 0 0 0 0 0
0 0 0 0 0 0 0 0 -0 0 -0 -0 -0 0 0 0 0 0 0 0 0 0 -0 0 0 0 0 0 0 0 0 0 0 0 0 0 0 0 -0 -0 -0 0 -0 -0 -0 0 0 0 0
0 0 0 0 0 0 0 0 -0 -0 -0 -0 0 0 0 0 -0 -0 0 0 -0 -0 -0 -0 -0 -0 0 0 0 0 0 0 0 0 0 -0 0 -0 -0 0 0 0 0 0 -0 0 0 0 0
0 0 0 0 0 0 0 0 -0 -0 0 0 0 0 -0 -0 -0 0 0 -0 -0 -0 -0 -0 -0 -0 -0 -0 0 0 0 0 0 0 0 -0 -0 -0 0 0 0 0 0 0 0 0 0 -0 -0
0 0 0 0 0 0 0 0 0 0 0 0 0 0 -0 -0 -0 0 -0 -0 -0 -0 -0 -0 -0 -0 -0 -0 0 0 0 0 0 0 -0 -0 -0 -0 0 0 0 0 0 0 0 0 0 0 -0
0 0 0 0 0 0 0 0 0 0 0 0 0 0 -0 -0 -0 -0 -0 -0 -0 -0 -0 -0 -0 -0 -0 -0 0 0 0 0 0 0 -0 0 -0 -0 0 0 0 0 0 0 0 -0 0 0 -0
Wind_Speed_500mb
27 31 26 11 12 12 19 9 13 11 11 7 11 15 13 21 21 14 20 11 19 26 36 39 32 26 23 23 25 21 17 13 13 15 18 19 20 22 23 23 23 25 23 22 22 22 22 17 14
33 35 15 8 14 19 18 18 17 1 11 19 22 27 26 28 15 18 15 18 23 27 37 38 35 32 28 24 22 20 18 14 12 15 18 20 21 22 22 23 24 23 24 24 24 21 21 20 18
35 21 18 9 18 22 10 17 8 5 9 4 7 7 12 9 7 9 13 16 29 34 35 36 39 35 34 26 22 19 18 14 13 16 19 21 22 22 24 24 23 26 24 23 23 23 23 23 22
24 13 15 18 27 22 20 9 6 10 6 3 6 13 10 13 8 8 20 25 30 34 34 39 40 38 38 32 25 20 15 9 9 15 21 23 22 24 24 27 29 31 33 32 30 28 30 28 26
20 16 21 26 35 25 18 30 27 21 12 13 6 8 13 12 16 28 25 23 34 38 37 40 43 39 40 37 30 26 20 13 9 14 20 23 23 22 26 32 36 38 39 40 37 34 36 35 36
25 18 22 27 35 22 23 27 29 27 22 17 16 12 21 8 18 18 14 23 31 38 42 42 43 41 41 40 36 34 30 25 20 18 21 24 21 25 33 37 39 40 42 42 41 42 40 37 39
32 21 32 34 34 28 23 16 27 25 16 21 10 21 16 5 23 17 18 19 34 36 43 42 44 43 44 44 42 42 38 30 27 26 23 24 24 32 38 41 43 45 49 50 48 46 44 44 42
34 23 38 32 33 31 10 13 10 16 20 10 14 15 12 25 26 22 21 21 33 41 42 43 46 47 49 50 49 45 40 35 33 29 27 27 28 32 37 39 38 39 41 44 45 49 52 51 48
33 22 30 40 39 33 27 22 6 10 25 32 25 35 34 34 28 26 26 27 34 45 50 49 45 47 50 44 45 48 45 42 39 34 33 29 23 23 26 31 35 39 33 31 31 31 36 41 44
39 30 48 42 45 38 51 33 34 24 37 48 47 45 31 33 35 36 35 35 36 51 55 52 50 48 46 41 39 46 46 43 37 30 26 26 23 25 28 31 35 31 32 30 25 25 26 24 24
48 54 48 54 62 57 49 52 54 44 37 53 49 55 51 48 43 42 43 40 42 45 55 58 55 54 50 45 44 36 35 32 30 31 28 25 26 24 23 21 21 22 28 19 21 21 18 22 26
58 71 61 64 70 58 44 63 55 57 56 62 56 57 59 55 51 43 47 44 40 39 54 58 58 66 62 46 44 38 36 32 28 26 28 27 25 25 26 24 23 24 22 22 20 19 21 23 25
67 56 64 60 61 63 59 62 61 70 59 69 57 54 51 50 55 51 46 46 42 42 46 59 60 68 66 64 43 43 40 36 28 25 26 27 26 28 28 29 26 28 25 25 24 25 23 19 20
65 64 75 68 59 56 49 60 68 73 50 74 60 61 53 52 49 46 44 44 40 43 44 55 62 69 71 67 60 58 50 34 33 25 25 30 29 29 30 34 35 32 34 30 28 23 23 21 21
60 53 56 47 57 54 50 61 60 73 58 66 59 52 48 46 43 44 43 46 42 40 36 55 60 67 73 69 65 60 46 43 27 25 29 32 33 31 35 40 41 38 38 38 33 29 26 23 22
44 54 55 50 42 41 39 73 54 50 57 50 44 46 46 48 48 49 43 43 48 46 40 45 55 59 74 71 66 56 40 34 27 25 24 27 30 34 40 42 43 39 38 38 43 30 26 25 23
51 52 63 60 55 52 52 79 59 69 41 40 42 49 50 52 54 57 52 49 44 48 45 48 52 55 68 66 63 55 49 35 26 24 23 24 29 33 39 38 38 38 37 38 36 31 28 24 25
52 51 53 59 45 44 52 62 54 61 61 54 58 53 57 54 60 62 49 44 43 47 47 46 42 49 58 59 60 41 34 28 24 22 23 26 28 33 36 35 34 33 34 35 29 29 29 25 24
50 50 60 48 48 49 48 57 58 65 47 57 64 55 61 58 63 53 46 37 36 36 44 39 42 52 60 61 50 41 33 25 21 20 24 26 28 31 32 30 30 29 31 32 33 31 27 27 25
54 58 58 49 47 40 40 51 52 47 53 63 69 61 64 54 53 41 33 32 34 37 36 36 42 52 60 51 43 32 27 20 18 18 22 23 25 26 27 28 28 29 24 27 28 29 26 27 27
59 58 53 50 43 38 43 50 55 54 70 75 64 59 52 53 58 42 26 22 26 30 32 35 42 51 51 47 39 30 21 15 11 15 15 18 18 20 20 19 17 18 23 23 25 27 25 23 26
60 49 47 43 39 37 35 42 45 43 49 43 59 61 61 58 45 33 23 20 23 25 31 40 48 54 52 43 30 26 16 13 14 14 14 13 13 12 11 12 12 13 14 15 12 12 15 23 21
52 30 40 41 38 39 45 29 44 46 47 46 43 59 57 50 31 25 24 23 26 31 41 46 54 54 46 37 27 18 15 12 10 8 11 13 13 8 6 10 10 10 9 8 6 9 14 16 16
44 28 35 31 28 33 42 39 41 39 43 43 29 26 22 23 14 18 24 31 35 42 49 53 54 45 39 31 25 21 15 12 7 8 11 12 13 10 11 11 11 10 7 6 8 11 11 12 12
47 41 20 22 23 27 30 25 39 34 41 41 29 11 13 8 20 30 35 38 46 54 53 51 46 40 34 28 24 18 12 9 4 4 7 10 11 14 13 13 12 7 8 8 10 11 13 11 11
58 50 24 30 23 26 14 17 20 22 31 30 28 29 10 9 24 35 41 49 55 54 52 47 43 38 32 28 24 18 11 6 4 4 7 8 13 16 16 13 9 7 6 7 7 12 14 14 13
63 51 46 27 6 13 13 18 28 40 36 30 18 12 13 22 32 41 47 51 55 53 48 44 40 35 31 28 24 18 12 12 9 6 14 15 19 16 15 10 7 3 4 4 6 12 15 13 9
51 48 39 25 28 29 15 21 20 25 21 14 21 13 24 33 38 45 50 52 50 47 43 41 35 32 31 28 23 16 11 12 6 8 15 18 19 18 13 8 5 2 3 4 9 9 9 10 10
35 43 37 29 21 15 8 8 22 28 21 5 10 20 37 43 45 49 52 50 48 45 41 39 33 32 31 26 22 17 12 12 9 10 14 16 18 17 12 9 6 3 4 5 3 8 7 10 15
51 37 47 25 32 26 15 14 10 10 13 8 7 26 41 46 50 53 52 51 48 44 42 37 32 31 29 25 20 14 10 11 8 13 14 16 16 16 12 10 8 6 4 3 4 7 15 17 14
Wind_Direction_500mb
163 156 154 162 234 232 240 220 273 221 212 191 264 233 242 309 300 336 317 285 196 190 190 191 188 186 190 200 208 216 224 239 261 275 279 278 275 276 273 263 262 260 267 269 270 276 287 278 248
162 155 178 225 253 228 195 208 199 34 326 293 263 241 252 263 287 283 289 274 196 188 189 195 188 187 190 191 203 213 228 245 270 289 293 289 287 282 273 263 262 252 262 275 275 269 273 286 287
162 171 229 229 240 252 252 173 128 330 327 314 243 266 302 275 258 284 281 226 201 188 192 196 191 190 200 200 203 208 224 248 282 299 305 298 293 285 278 267 256 261 253 264 266 256 265 275 280
162 194 242 243 236 241 261 168 234 301 176 264 323 268 261 267 280 277 292 222 212 197 194 199 194 196 202 204 207 210 218 240 293 309 305 298 292 280 267 266 268 268 261 270 270 251 253 258 259
184 230 248 239 249 255 254 265 282 277 263 248 282 300 283 295 310 308 285 245 216 204 200 201 199 199 206 207 213 214 214 229 269 301 307 301 291 280 274 272 272 270 269 268 262 254 256 256 257
208 256 239 242 247 231 258 271 263 259 263 240 260 286 283 355 357 331 302 232 213 207 207 206 201 199 207 212 218 223 226 235 250 282 303 299 290 276 273 270 267 267 264 264 263 257 256 253 254
236 223 256 264 271 273 283 275 258 265 247 248 298 286 283 332 346 329 316 250 221 217 211 211 210 205 209 217 223 230 232 239 248 264 290 295 279 267 269 271 271 270 268 265 260 259 258 252 255
232 251 257 261 263 273 293 258 274 243 268 302 293 267 266 328 326 315 298 278 241 224 218 212 214 213 212 216 222 230 235 241 247 261 280 289 283 276 277 277 283 275 273 268 263 258 254 255 258
235 235 248 250 254 262 239 258 171 266 269 275 268 277 292 293 298 293 282 270 249 233 221 215 213 212 214 212 224 227 232 240 247 256 271 283 275 264 273 277 275 279 277 272 266 262 260 259 256
224 230 244 254 270 273 280 245 280 274 277 278 281 280 279 286 287 286 276 271 260 241 229 219 214 210 207 207 214 225 228 235 242 243 253 279 258 262 265 271 283 273 280 275 267 263 258 256 261
233 245 254 249 257 260 270 273 273 278 276 275 294 297 296 298 291 281 271 275 268 255 236 226 218 216 208 206 210 211 216 221 232 242 258 262 258 268 273 271 278 289 288 277 279 277 279 260 253
243 252 251 262 259 258 259 271 277 272 271 281 288 289 290 288 289 281 271 275 275 260 241 226 218 224 220 211 211 209 213 219 228 246 265 263 263 269 268 259 265 267 269 257 257 258 256 258 252
243 249 263 251 261 267 270 267 272 275 279 279 284 286 289 288 285 280 276 273 271 257 240 225 217 224 227 216 211 210 211 221 230 243 255 259 252 262 261 256 257 252 252 258 257 258 261 261 255
247 253 257 262 257 261 263 268 268 267 273 279 281 284 285 287 284 276 272 270 270 267 242 223 221 222 227 225 220 225 223 222 242 241 244 261 261 261 257 259 256 254 251 246 251 252 255 259 252
249 253 258 251 253 254 262 268 256 266 266 269 274 279 284 284 281 275 272 272 267 266 242 225 217 224 228 226 225 227 225 228 233 239 254 266 269 264 260 266 265 264 259 251 249 251 246 249 249
248 240 249 236 230 240 230 262 263 276 275 267 267 277 283 284 282 279 270 270 272 270 243 225 220 225 225 227 227 220 212 225 228 236 250 264 268 267 271 272 268 264 260 260 255 244 238 240 241
235 239 240 245 243 242 233 257 259 263 262 264 267 277 282 283 285 275 275 272 266 259 252 237 234 221 224 222 221 217 222 221 225 237 254 266 269 268 272 271 265 261 260 256 243 239 234 232 235
228 229 243 258 243 237 244 251 261 264 265 277 274 277 280 280 282 283 277 269 259 248 239 233 225 219 216 210 209 202 212 214 225 243 256 263 273 272 271 268 267 261 256 250 236 231 229 231 237
248 253 249 246 244 248 250 258 269 275 280 272 271 272 274 280 284 280 272 266 240 233 233 221 216 209 204 199 188 195 204 213 229 247 258 267 276 272 269 266 263 254 249 242 232 231 229 228 225
233 240 248 255 261 269 271 269 272 277 273 271 273 268 270 271 278 274 273 251 228 226 220 209 202 199 191 185 179 189 195 214 227 245 256 267 269 267 265 267 259 253 237 233 236 235 231 229 216
225 236 245 258 268 254 252 269 270 263 261 261 262 261 261 264 278 276 260 231 222 210 202 186 182 179 168 171 175 176 185 204 242 258 263 270 263 258 266 264 251 232 221 237 241 242 233 223 210
231 226 246 252 257 259 255 276 275 280 278 269 267 264 263 266 263 257 233 209 194 187 175 169 171 168 175 175 169 172 189 209 226 236 249 259 247 244 246 234 207 220 229 240 247 232 206 204 193
231 232 237 241 254 266 260 262 274 261 263 259 258 260 255 255 247 244 200 178 164 158 155 158 161 168 174 167 163 165 175 213 221 243 255 242 233 211 183 183 196 218 219 233 181 184 179 186 188
219 217 226 236 246 250 251 252 271 271 267 271 270 257 242 199 200 171 160 154 151 146 148 152 160 165 166 165 159 160 175 185 216 250 258 244 237 173 177 173 185 201 188 162 173 179 190 199 190
200 196 201 217 220 247 249 244 246 282 286 276 271 254 136 165 164 152 150 149 146 147 149 153 155 155 159 159 160 164 165 175 215 242 241 203 202 152 174 169 175 181 149 161 178 189 205 214 218
192 187 205 218 232 245 201 246 251 266 277 284 266 244 253 162 142 143 147 145 147 148 151 152 153 155 160 163 163 164 164 173 176 172 165 153 151 157 161 161 172 140 133 152 173 200 198 207 213
187 210 215 243 181 264 254 243 267 261 263 256 262 216 191 159 146 142 144 146 147 150 150 151 154 158 162 164 165 164 157 160 170 129 132 140 155 164 164 174 162 170 155 216 198 191 193 190 194
195 197 201 216 227 241 249 255 262 269 315 214 237 212 162 149 143 144 145 148 149 148 150 151 154 159 163 165 166 169 162 157 131 120 148 152 166 166 171 178 170 194 194 219 218 192 199 185 176
191 196 207 205 238 202 261 249 256 250 282 312 167 154 154 149 147 148 149 150 148 149 152 153 156 162 165 167 169 172 165 161 151 152 154 166 173 176 172 172 176 177 200 207 201 203 176 173 175
203 192 194 200 194 235 270 262 244 337 309 317 218 149 151 148 150 152 152 152 151 154 156 158 161 166 168 167 169 176 172 181 173 158 156 168 176 172 172 161 166 167 185 164 193 100 155 154 163
Wind_Speed_850mb
27 31 26 11 12 12 19 9 13 11 11 7 11 15 13 21 21 14 20 11 19 26 36 39 32 26 23 23 25 21 17 13 13 15 18 19 20 22 23 23 23 25 23 22 22 22 22 17 14
33 35 15 8 14 19 18 18 17 1 11 19 22 27 26 28 15 18 15 18 23 27 37 38 35 32 28 24 22 20 18 14 12 15 18 20 21 22 22 23 24 23 24 24 24 21 21 20 18
35 21 18 9 18 22 10 17 8 5 9 4 7 7 12 9 7 9 13 16 29 34 35 36 39 35 34 26 22 19 18 14 13 16 19 21 22 22 24 24 23 26 24 23 23 23 23 23 22
24 13 15 18 27 22 20 9 6 10 6 3 6 13 10 13 8 8 20 25 30 34 34 39 40 38 38 32 25 20 15 9 9 15 21 23 22 24 24 27 29 31 33 32 30 28 30 28 26
20 16 21 26 35 25 18 30 27 21 12 13 6 8 13 12 16 28 25 23 34 38 37 40 43 39 40 37 30 26 20 13 9 14 20 23 23 22 26 32 36 38 39 40 37 34 36 35 36
25 18 22 27 35 22 23 27 29 27 22 17 16 12 21 8 18 18 14 23 31 38 42 42 43 41 41 40 36 34 30 25 20 18 21 24 21 25 33 37 39 40 42 42 41 42 40 37 39
32 21 32 34 34 28 23 16 27 25 16 21 10 21 16 5 23 17 18 19 34 36 43 42 44 43 44 44 42 42 38 30 27 26 23 24 24 32 38 41 43 45 49 50 48 46 44 44 42
34 23 38 32 33 31 10 13 10 16 20 10 14 15 12 25 26 22 21 21 33 41 42 43 46 47 49 50 49 45 40 35 33 29 27 27 28 32 37 39 38 39 41 44 45 49 52 51 48
33 22 30 40 39 33 27 22 6 10 25 32 25 35 34 34 28 26 26 27 34 45 50 49 45 47 50 44 45 48 45 42 39 34 33 29 23 23 26 31 35 39 33 31 31 31 36 41 44
39 30 48 42 45 38 51 33 34 24 37 48 47 45 31 33 35 36 35 35 36 51 55 52 50 48 46 41 39 46 46 43 37 30 26 26 23 25 28 31 35 31 32 30 25 25 26 24 24
48 54 48 54 62 57 49 52 54 44 37 53 49 55 51 48 43 42 43 40 42 45 55 58 55 54 50 45 44 36 35 32 30 31 28 25 26 24 23 21 21 22 28 19 21 21 18 22 26
58 71 61 64 70 58 44 63 55 57 56 62 56 57 59 55 51 43 47 44 40 39 54 58 58 66 62 46 44 38 36 32 28 26 28 27 25 25 26 24 23 24 22 22 20 19 21 23 25
67 56 64 60 61 63 59 62 61 70 59 69 57 54 51 50 55 51 46 46 42 42 46 59 60 68 66 64 43 43 40 36 28 25 26 27 26 28 28 29 26 28 25 25 24 25 23 19 20
65 64 75 68 59 56 49 60 68 73 50 74 60 61 53 52 49 46 44 44 40 43 44 55 62 69 71 67 60 58 50 34 33 25 25 30 29 29 30 34 35 32 34 30 28 23 23 21 21
60 53 56 47 57 54 50 61 60 73 58 66 59 52 48 46 43 44 43 46 42 40 36 55 60 67 73 69 65 60 46 43 27 25 29 32 33 31 35 40 41 38 38 38 33 29 26 23 22
44 54 55 50 42 41 39 73 54 50 57 50 44 46 46 48 48 49 43 43 48 46 40 45 55 59 74 71 66 56 40 34 27 25 24 27 30 34 40 42 43 39 38 38 43 30 26 25 23
51 52 63 60 55 52 52 79 59 69 41 40 42 49 50 52 54 57 52 49 44 48 45 48 52 55 68 66 63 55 49 35 26 24 23 24 29 33 39 38 38 38 37 38 36 31 28 24 25
52 51 53 59 45 44 52 62 54 61 61 54 58 53 57 54 60 62 49 44 43 47 47 46 42 49 58 59 60 41 34 28 24 22 23 26 28 33 36 35 34 33 34 35 29 29 29 25 24
50 50 60 48 48 49 48 57 58 65 47 57 64 55 61 58 63 53 46 37 36 36 44 39 42 52 60 61 50 41 33 25 21 20 24 26 28 31 32 30 30 29 31 32 33 31 27 27 25
54 58 58 49 47 40 40 51 52 47 53 63 69 61 64 54 53 41 33 32 34 37 36 36 42 52 60 51 43 32 27 20 18 18 22 23 25 26 27 28 28 29 24 27 28 29 26 27 27
59 58 53 50 43 38 43 50 55 54 70 75 64 59 52 53 58 42 26 22 26 30 32 35 42 51 51 47 39 30 21 15 11 15 15 18 18 20 20 19 17 18 23 23 25 27 25 23 26
60 49 47 43 39 37 35 42 45 43 49 43 59 61 61 58 45 33 23 20 23 25 31 40 48 54 52 43 30 26 16 13 14 14 14 13 13 12 11 12 12 13 14 15 12 12 15 23 21
52 30 40 41 38 39 45 29 44 46 47 46 43 59 57 50 31 25 24 23 26 31 41 46 54 54 46 37 27 18 15 12 10 8 11 13 13 8 6 10 10 10 9 8 6 9 14 16 16
44 28 35 31 28 33 42 39 41 39 43 43 29 26 22 23 14 18 24 31 35 42 49 53 54 45 39 31 25 21 15 12 7 8 11 12 13 10 11 11 11 10 7 6 8 11 11 12 12
47 41 20 22 23 27 30 25 39 34 41 41 29 11 13 8 20 30 35 38 46 54 53 51 46 40 34 28 24 18 12 9 4 4 7 10 11 14 13 13 12 7 8 8 10 11 13 11 11
58 50 24 30 23 26 14 17 20 22 31 30 28 29 10 9 24 35 41 49 55 54 52 47 43 38 32 28 24 18 11 6 4 4 7 8 13 16 16 13 9 7 6 7 7 12 14 14 13
63 51 46 27 6 13 13 18 28 40 36 30 18 12 13 22 32 41 47 51 55 53 48 44 40 35 31 28 24 18 12 12 9 6 14 15 19 16 15 10 7 3 4 4 6 12 15 13 9
51 48 39 25 28 29 15 21 20 25 21 14 21 13 24 33 38 45 50 52 50 47 43 41 35 32 31 28 23 16 11 12 6 8 15 18 19 18 13 8 5 2 3 4 9 9 9 10 10
35 43 37 29 21 15 8 8 22 28 21 5 10 20 37 43 45 49 52 50 48 45 41 39 33 32 31 26 22 17 12 12 9 10 14 16 18 17 12 9 6 3 4 5 3 8 7 10 15
51 37 47 25 32 26 15 14 10 10 13 8 7 26 41 46 50 53 52 51 48 44 42 37 32 31 29 25 20 14 10 11 8 13 14 16 16 16 12 10 8 6 4 3 4 7 15 17 14
Wind_Direction_850mb
163 156 154 162 234 232 240 220 273 221 212 191 264 233 242 309 300 336 317 285 196 190 190 191 188 186 190 200 208 216 224 239 261 275 279 278 275 276 273 263 262 260 267 269 270 276 287 278 248
162 155 178 225 253 228 195 208 199 34 326 293 263 241 252 263 287 283 289 274 196 188 189 195 188 187 190 191 203 213 228 245 270 289 293 289 287 282 273 263 262 252 262 275 275 269 273 286 287
162 171 229 229 240 252 252 173 128 330 327 314 243 266 302 275 258 284 281 226 201 188 192 196 191 190 200 200 203 208 224 248 282 299 305 298 293 285 278 267 256 261 253 264 266 256 265 275 280
162 194 242 243 236 241 261 168 234 301 176 264 323 268 261 267 280 277 292 222 212 197 194 199 194 196 202 204 207 210 218 240 293 309 305 298 292 280 267 266 268 268 261 270 270 251 253 258 259
184 230 248 239 249 255 254 265 282 277 263 248 282 300 283 295 310 308 285 245 216 204 200 201 199 199 206 207 213 214 214 229 269 301 307 301 291 280 274 272 272 270 269 268 262 254 256 256 257
208 256 239 242 247 231 258 271 263 259 263 240 260 286 283 355 357 331 302 232 213 207 207 206 201 199 207 212 218 223 226 235 250 282 303 299 290 276 273 270 267 267 264 264 263 257 256 253 254
236 223 256 264 271 273 283 275 258 265 247 248 298 286 283 332 346 329 316 250 221 217 211 211 210 205 209 217 223 230 232 239 248 264 290 295 279 267 269 271 271 270 268 265 260 259 258 252 255
232 251 257 261 263 273 293 258 274 243 268 302 293 267 266 328 326 315 298 278 241 224 218 212 214 213 212 216 222 230 235 241 247 261 280 289 283 276 277 277 283 275 273 268 263 258 254 255 258
235 235 248 250 254 262 239 258 171 266 269 275 268 277 292 293 298 293 282 270 249 233 221 215 213 212 214 212 224 227 232 240 247 256 271 283 275 264 273 277 275 279 277 272 266 262 260 259 256
224 230 244 254 270 273 280 245 280 274 277 278 281 280 279 286 287 286 276 271 260 241 229 219 214 210 207 207 214 225 228 235 242 243 253 279 258 262 265 271 283 273 280 275 267 263 258 256 261
233 245 254 249 257 260 270 273 273 278 276 275 294 297 296 298 291 281 271 275 268 255 236 226 218 216 208 206 210 211 216 221 232 242 258 262 258 268 273 271 278 289 288 277 279 277 279 260 253
243 252 251 262 259 258 259 271 277 272 271 281 288 289 290 288 289 281 271 275 275 260 241 226 218 224 220 211 211 209 213 219 228 246 265 263 263 269 268 259 265 267 269 257 257 258 256 258 252
243 249 263 251 261 267 270 267 272 275 279 279 284 286 289 288 285 280 276 273 271 257 240 225 217 224 227 216 211 210 211 221 230 243 255 259 252 262 261 256 257 252 252 258 257 258 261 261 255
247 253 257 262 257 261 263 268 268 267 273 279 281 284 285 287 284 276 272 270 270 267 242 223 221 222 227 225 220 225 223 222 242 241 244 261 261 261 257 259 256 254 251 246 251 252 255 259 252
249 253 258 251 253 254 262 268 256 266 266 269 274 279 284 284 281 275 272 272 267 266 242 225 217 224 228 226 225 227 225 228 233 239 254 266 269 264 260 266 265 264 259 251 249 251 246 249 249
248 240 249 236 230 240 230 262 263 276 275 267 267 277 283 284 282 279 270 270 272 270 243 225 220 225 225 227 227 220 212 225 228 236 250 264 268 267 271 272 268 264 260 260 255 244 238 240 241
235 239 240 245 243 242 233 257 259 263 262 264 267 277 282 283 285 275 275 272 266 259 252 237 234 221 224 222 221 217 222 221 225 237 254 266 269 268 272 271 265 261 260 256 243 239 234 232 235
228 229 243 258 243 237 244 251 261 264 265 277 274 277 280 280 282 283 277 269 259 248 239 233 225 219 216 210 209 202 212 214 225 243 256 263 273 272 271 268 267 261 256 250 236 231 229 231 237
248 253 249 246 244 248 250 258 269 275 280 272 271 272 274 280 284 280 272 266 240 233 233 221 216 209 204 199 188 195 204 213 229 247 258 267 276 272 269 266 263 254 249 242 232 231 229 228 225
233 240 248 255 261 269 271 269 272 277 273 271 273 268 270 271 278 274 273 251 228 226 220 209 202 199 191 185 179 189 195 214 227 245 256 267 269 267 265 267 259 253 237 233 236 235 231 229 216
225 236 245 258 268 254 252 269 270 263 261 261 262 261 261 264 278 276 260 231 222 210 202 186 182 179 168 171 175 176 185 204 242 258 263 270 263 258 266 264 251 232 221 237 241 242 233 223 210
231 226 246 252 257 259 255 276 275 280 278 269 267 264 263 266 263 257 233 209 194 187 175 169 171 168 175 175 169 172 189 209 226 236 249 259 247 244 246 234 207 220 229 240 247 232 206 204 193
231 232 237 241 254 266 260 262 274 261 263 259 258 260 255 255 247 244 200 178 164 158 155 158 161 168 174 167 163 165 175 213 221 243 255 242 233 211 183 183 196 218 219 233 181 184 179 186 188
219 217 226 236 246 250 251 252 271 271 267 271 270 257 242 199 200 171 160 154 151 146 148 152 160 165 166 165 159 160 175 185 216 250 258 244 237 173 177 173 185 201 188 162 173 179 190 199 190
200 196 201 217 220 247 249 244 246 282 286 276 271 254 136 165 164 152 150 149 146 147 149 153 155 155 159 159 160 164 165 175 215 242 241 203 202 152 174 169 175 181 149 161 178 189 205 214 218
192 187 205 218 232 245 201 246 251 266 277 284 266 244 253 162 142 143 147 145 147 148 151 152 153 155 160 163 163 164 164 173 176 172 165 153 151 157 161 161 172 140 133 152 173 200 198 207 213
187 210 215 243 181 264 254 243 267 261 263 256 262 216 191 159 146 142 144 146 147 150 150 151 154 158 162 164 165 164 157 160 170 129 132 140 155 164 164 174 162 170 155 216 198 191 193 190 194
195 197 201 216 227 241 249 255 262 269 315 214 237 212 162 149 143 144 145 148 149 148 150 151 154 159 163 165 166 169 162 157 131 120 148 152 166 166 171 178 170 194 194 219 218 192 199 185 176
191 196 207 205 238 202 261 249 256 250 282 312 167 154 154 149 147 148 149 150 148 149 152 153 156 162 165 167 169 172 165 161 151 152 154 166 173 176 172 172 176 177 200 207 201 203 176 173 175
203 192 194 200 194 235 270 262 244 337 309 317 218 149 151 148 150 152 152 152 151 154 156 158 161 166 168 167 169 176 172 181 173 158 156 168 176 172 172 161 166 167 185 164 193 100 155 154 163